Regional Weather Roundup
Issued by NWS Albany, NY

Home | Current Version | Previous Version | Text Only | Print | Product List | Glossary On
Versions: 1 2 3 4 5 6 7 8 9 10 11 12 13 14 15 16 17 18 19 20 21 22 23 24 25 26 27
000
ASUS41 KALY 271410
RWRALY

NEW YORK STATE HOURLY WEATHER ROUNDUP
NATIONAL WEATHER SERVICE ALBANY NY
1000 AM EDT FRI MAY 27 2016

NOTE: "FAIR" INDICATES FEW OR NO CLOUDS BELOW 12,000 FEET WITH NO
SIGNIFICANT WEATHER AND/OR NO OBSTRUCTIONS TO VISIBILITY.

NYZ032-033-038>043-046>054-057>066-NYZ062>081-082-084-271500-
EAST


CITY           SKY/WX    TMP DP  RH WIND       PRES   REMARKS
ALBANY         CLOUDY    77  58  51 S9        30.03S
GLENS FALLS    CLOUDY    78  59  51 S6        30.02F
POUGHKEEPSIE   CLOUDY    79  61  53 S5        30.05S
NEWBURGH       PTSUNNY   75  63  64 CALM      30.08S
MONTGOMERY     CLOUDY    77  67  71 SW6       30.05F
WHITE PLAINS   CLOUDY    72  62  71 S3        30.08S
ISLIP          PTSUNNY   73  63  70 S9        30.08S
NEW YORK CITY  CLOUDY    78  67  68 SE7       30.06S
CENTRAL PARK   CLOUDY    79  62  56 VRB3      30.09S
$$

NYZ005>009-017-018-044>046-055-056-271500-
CENTRAL


CITY           SKY/WX    TMP DP  RH WIND       PRES   REMARKS
FULTON         PTSUNNY   81  68  64 W7        30.01S
SYRACUSE       PTSUNNY   81  65  58 W6        29.99F
ROME           SUNNY     78  65  63 CALM      30.02S
ELMIRA         SUNNY     79  64  60 SW7       30.03F
BINGHAMTON     SUNNY     73  63  70 SW7       30.08S
MONTICELLO     CLOUDY    72  66  83 CALM      30.10F
$$

NYZ026>034-041>043-087-271500-
NORTH


CITY           SKY/WX    TMP DP  RH WIND       PRES   REMARKS
WATERTOWN      CLOUDY    76  64  66 W8        30.00R
FORT DRUM      NOT AVBL
MASSENA        MOSUNNY   78  62  57 SW12      29.97F
SARANAC LAKE   MOSUNNY   76  58  53 SW8       30.03S
PLATTSBURGH    CLOUDY    74  61  63 SE9       29.98S
$$

NYZ001>004-010>016-019>021-085-271500-
WEST


CITY           SKY/WX    TMP DP  RH WIND       PRES   REMARKS
NIAGARA FALLS  PTSUNNY   76  65  68 SW16      29.97F
BUFFALO        MOSUNNY   75  65  70 SW17G24   29.99F
DUNKIRK        PTSUNNY   77  64  64 W10       30.01F
JAMESTOWN      PTSUNNY   70  63  78 SW9       30.07S
WELLSVILLE     SUNNY     72  64  76 S8        30.10S
ROCHESTER      PTSUNNY   80  69  69 SW14      29.99F
PENN YAN       SUNNY     78  64  61 SW9       30.03F
$$

             KEY
       WCI = WIND CHILL INDEX
       VSB = VISIBILITY
       HX  = HEAT INDEX
$$




USA.gov is the U.S. government's official web portal to all federal, state and local government web resources and services.